TimeAKDT,TemperatureF,Dew PointF,Humidity,Sea Level PressureIn,VisibilityMPH,Wind Direction,Wind SpeedMPH,Gust SpeedMPH,PrecipitationIn,Events,Conditions,WindDirDegrees,DateUTC
12:53 AM,61.0,42.1,50,29.93,10.0,SW,9.2,-,N/A,,Overcast,220,2013-08-05 08:53:00
1:53 AM,59.0,42.1,53,29.95,10.0,WSW,9.2,-,N/A,,Overcast,250,2013-08-05 09:53:00
2:53 AM,57.0,45.0,64,29.95,10.0,West,8.1,-,N/A,,Overcast,260,2013-08-05 10:53:00
3:53 AM,55.9,46.9,72,29.95,10.0,WSW,9.2,-,N/A,,Scattered Clouds,250,2013-08-05 11:53:00
4:53 AM,54.0,46.0,75,29.95,10.0,SW,9.2,-,N/A,,Clear,230,2013-08-05 12:53:00
5:53 AM,53.1,44.1,71,29.96,10.0,WSW,11.5,-,N/A,,Mostly Cloudy,240,2013-08-05 13:53:00
6:53 AM,53.1,44.1,71,29.96,10.0,WSW,8.1,-,N/A,,Mostly Cloudy,250,2013-08-05 14:53:00
7:53 AM,55.0,44.1,67,29.96,10.0,East,3.5,-,N/A,,Scattered Clouds,100,2013-08-05 15:53:00
8:53 AM,59.0,45.0,60,29.96,10.0,ESE,4.6,-,N/A,,Scattered Clouds,110,2013-08-05 16:53:00
9:53 AM,63.0,45.0,52,29.95,10.0,Calm,Calm,-,N/A,,Scattered Clouds,0,2013-08-05 17:53:00
10:53 AM,66.0,43.0,43,29.95,10.0,NE,6.9,-,N/A,,Scattered Clouds,50,2013-08-05 18:53:00
11:53 AM,68.0,42.1,39,29.94,10.0,Variable,4.6,-,N/A,,Scattered Clouds,0,2013-08-05 19:53:00
12:53 PM,70.0,42.1,36,29.92,10.0,East,3.5,-,N/A,,Scattered Clouds,100,2013-08-05 20:53:00
1:53 PM,70.0,42.1,36,29.91,10.0,NE,8.1,-,N/A,,Scattered Clouds,50,2013-08-05 21:53:00
2:53 PM,71.1,39.9,32,29.91,10.0,WNW,6.9,-,N/A,,Scattered Clouds,300,2013-08-05 22:53:00
3:53 PM,72.0,37.0,28,29.91,10.0,South,12.7,-,N/A,,Mostly Cloudy,180,2013-08-05 23:53:00
4:53 PM,73.9,37.0,26,29.89,10.0,SW,11.5,-,N/A,,Mostly Cloudy,220,2013-08-06 00:53:00
5:53 PM,73.0,37.9,28,29.90,10.0,South,10.4,-,N/A,,Mostly Cloudy,190,2013-08-06 01:53:00
6:53 PM,72.0,39.0,30,29.90,10.0,West,8.1,-,N/A,,Mostly Cloudy,270,2013-08-06 02:53:00
7:53 PM,70.0,39.9,33,29.91,10.0,South,15.0,-,N/A,,Mostly Cloudy,190,2013-08-06 03:53:00
8:53 PM,69.1,39.9,35,29.91,10.0,SSW,12.7,-,N/A,,Mostly Cloudy,200,2013-08-06 04:53:00
9:53 PM,66.0,41.0,40,29.92,10.0,SW,9.2,-,N/A,,Clear,220,2013-08-06 05:53:00
10:53 PM,63.0,42.1,46,29.93,10.0,SW,5.8,-,N/A,,Clear,230,2013-08-06 06:53:00
11:53 PM,61.0,43.0,52,29.94,10.0,WSW,6.9,-,N/A,,Clear,240,2013-08-06 07:53:00